Wind_Speed
12 10 9 9 10 10 10 12 13 14 15 16 17 19 19 20 22 22 23 23 23 24 24 24 25 26 26 27 27 28 29 29 30 29 29 28 27 27 28 28 29 29 27 27 26 25 26 27 28 27 26 27 28 28 28 28 27 27 27 27 29 30 29 25 18 17 22 26 27 28 29 31 36 39 40 40 42 43 45 47 47 46 46 45 45
11 10 10 9 10 10 9 11 12 13 15 16 17 18 19 20 20 21 22 22 23 24 25 25 26 26 26 27 27 27 28 28 29 31 31 32 32 31 30 29 30 30 30 31 30 28 27 28 29 29 28 28 29 28 28 28 28 29 29 27 29 29 27 28 24 19 21 25 27 29 30 31 35 38 39 41 42 42 44 46 47 47 48 47 46
10 10 10 9 10 10 10 11 13 14 15 17 18 19 19 20 20 21 22 23 24 25 26 27 27 28 28 28 28 28 29 29 29 30 30 32 33 34 35 34 33 32 32 32 32 31 31 31 30 30 29 29 30 28 28 29 28 30 31 29 29 30 28 27 28 24 23 25 26 29 30 32 35 38 39 40 42 42 45 46 47 48 49 48 48
7 7 7 7 8 9 11 12 14 16 17 18 20 20 21 22 22 22 23 24 25 26 27 28 28 29 29 30 30 30 30 31 31 31 31 32 33 34 35 36 36 36 36 35 34 33 32 33 34 32 29 30 31 31 29 29 29 29 31 31 30 30 29 28 29 29 26 25 26 27 29 32 36 37 37 38 40 42 44 45 45 47 48 48 48
4 4 4 6 8 10 12 14 16 18 19 21 22 23 24 24 24 25 25 26 27 28 29 30 30 30 30 30 31 31 31 32 32 33 33 33 34 35 35 36 37 38 39 39 38 36 34 35 36 34 31 31 32 32 30 29 29 28 30 31 30 30 30 29 30 31 29 28 28 27 27 30 34 35 35 35 37 39 41 42 43 44 44 44 45
1 3 6 8 10 12 14 16 18 20 22 24 25 25 26 26 27 27 28 28 30 30 31 32 31 32 32 32 31 32 32 32 32 32 33 33 33 34 34 35 36 37 38 39 40 40 38 38 38 36 33 33 33 33 32 31 31 30 30 31 30 30 30 30 30 30 30 31 30 27 26 29 32 34 34 34 35 36 37 38 40 40 40 40 42
3 6 8 9 11 12 14 16 18 21 23 26 27 28 27 28 28 29 29 30 32 33 33 33 33 33 33 33 33 32 32 33 33 32 32 31 31 32 33 34 35 36 37 38 39 40 40 41 41 40 37 35 35 35 34 32 33 33 33 33 31 29 29 31 30 28 29 30 29 28 27 28 30 33 34 33 34 37 37 34 33 35 37 39 42
6 7 8 9 11 13 15 17 19 22 25 28 29 30 29 30 30 31 31 31 32 33 34 35 36 35 34 34 33 33 34 34 34 32 31 30 30 31 33 34 35 36 36 38 38 39 40 41 42 42 41 39 37 37 35 34 33 33 34 34 32 30 30 30 29 27 28 28 28 28 26 25 27 30 30 27 28 33 35 30 28 31 37 40 43
7 7 8 10 12 14 16 19 21 25 27 29 30 31 31 32 33 34 35 35 35 35 36 36 35 36 36 35 35 35 34 35 35 31 30 30 31 31 32 32 33 34 35 37 38 39 40 40 41 42 42 42 41 40 39 37 34 34 35 34 33 32 31 30 28 27 26 25 26 26 23 23 25 26 26 27 31 32 30 29 30 32 33 35 39
7 7 8 10 13 15 18 21 24 27 29 30 31 31 32 34 36 37 38 39 39 39 39 38 36 36 36 37 37 36 36 37 35 30 28 29 30 31 32 33 33 34 35 37 38 39 40 40 41 42 42 43 43 44 44 43 40 38 39 37 34 33 33 31 30 28 26 23 24 25 20 20 25 27 27 31 34 30 27 30 32 29 25 25 30
6 6 8 11 13 16 20 23 26 28 29 30 31 32 33 35 36 37 39 39 40 39 39 39 39 37 36 37 38 39 39 39 34 30 29 30 30 31 33 35 35 36 36 37 39 40 40 40 40 41 41 42 42 43 43 44 44 43 42 41 39 37 36 34 32 31 28 25 26 26 21 22 29 29 28 31 31 30 31 32 30 27 24 20 19
5 7 9 12 15 18 22 25 26 27 28 29 30 32 34 35 36 37 37 37 38 39 39 39 39 38 36 37 38 39 40 39 33 31 32 32 31 31 33 35 36 36 36 37 38 40 41 41 41 42 42 42 42 42 42 43 44 45 44 43 42 41 41 40 38 35 31 28 28 29 27 27 31 29 28 29 29 30 32 32 31 31 28 24 22
7 10 12 15 18 21 23 24 25 26 27 29 31 32 33 35 35 35 36 36 36 37 38 38 38 37 35 35 37 39 39 37 32 31 33 33 33 33 34 36 38 39 40 40 40 41 41 40 41 42 42 42 42 42 42 42 43 43 44 43 42 43 43 45 46 43 40 35 31 32 34 32 31 31 30 29 29 30 31 31 33 33 29 29 32
10 13 15 17 19 21 22 23 24 26 27 29 30 31 32 33 34 34 35 36 36 37 38 37 37 35 33 34 36 39 39 35 32 33 34 34 34 34 34 36 38 39 40 41 41 41 41 41 41 43 43 42 41 41 41 41 41 40 41 42 42 43 43 44 45 46 46 43 39 39 42 39 36 36 34 29 30 33 33 33 34 34 34 36 37
13 15 16 17 18 19 21 22 24 26 27 28 29 30 31 32 33 33 34 35 35 36 36 36 36 35 34 34 36 40 40 34 32 33 34 33 33 33 32 33 34 35 37 38 38 39 41 42 43 43 44 43 42 40 39 40 40 39 40 40 42 44 44 44 44 45 45 45 44 45 48 46 43 42 38 32 33 36 36 38 38 38 38 38 35
13 14 15 15 17 18 20 22 24 25 26 27 28 29 30 30 31 32 34 35 34 34 35 35 35 36 36 35 36 41 41 34 31 32 32 31 32 31 31 31 32 34 35 36 36 36 37 38 38 39 40 41 41 39 38 39 39 40 40 41 41 42 44 46 47 47 47 46 46 47 50 50 47 46 43 38 35 35 35 36 37 35 32 28 27
12 13 14 14 16 18 20 22 23 24 25 27 28 28 29 30 30 30 32 34 34 34 35 36 35 34 36 36 36 39 40 34 30 31 31 31 31 31 30 31 31 32 33 33 33 33 33 33 34 36 38 40 40 39 38 38 40 40 41 41 41 41 43 45 46 47 48 50 50 49 51 52 51 49 48 44 39 36 32 30 30 31 26 18 17
12 13 14 15 18 19 20 21 22 24 24 25 27 28 28 30 30 29 30 33 35 35 35 36 35 33 34 36 35 36 39 35 30 31 32 30 30 31 30 30 31 31 32 32 31 31 31 31 32 33 35 36 37 36 36 36 38 39 39 40 40 39 41 43 44 44 45 46 48 49 50 52 51 49 47 45 43 39 35 33 32 31 26 19 18
12 14 15 17 18 18 19 20 21 22 24 25 26 27 28 29 30 30 30 32 34 35 34 35 36 34 34 36 34 34 37 37 32 31 32 30 29 31 31 31 31 32 32 33 32 32 32 33 33 34 36 37 38 37 36 36 36 37 37 36 36 38 40 40 40 41 41 41 42 44 46 49 49 48 46 46 45 42 41 41 38 33 28 27 25
13 15 16 17 18 17 18 19 20 21 23 25 25 26 27 29 30 31 32 32 33 34 33 33 36 36 34 35 35 34 36 37 33 30 31 30 29 31 31 32 33 33 33 34 35 34 34 34 33 32 33 35 36 36 36 36 36 37 37 35 36 39 42 40 39 39 39 40 41 41 43 45 46 45 44 44 44 43 43 43 41 38 34 31 28
15 16 17 17 17 18 18 18 19 21 22 24 26 26 27 28 30 31 32 33 33 33 33 33 34 35 34 34 35 34 34 35 33 31 30 30 30 30 32 33 34 36 36 35 34 34 33 32 32 32 33 35 36 37 37 37 37 37 37 37 39 41 43 42 42 42 40 40 41 40 41 42 42 41 40 40 41 42 42 43 43 41 39 36 31
15 15 16 16 17 18 18 18 19 21 21 22 25 27 27 28 29 31 32 33 33 32 32 32 33 34 34 33 34 35 34 33 32 31 30 30 30 30 32 34 34 35 37 36 34 34 35 37 37 37 37 38 38 39 39 39 39 40 40 40 41 42 42 42 42 42 41 39 38 37 37 38 38 38 37 38 39 41 41 42 43 43 43 43 38
14 15 16 17 17 18 18 19 19 20 21 22 24 26 28 29 29 30 31 31 32 31 31 31 31 32 33 33 33 34 34 33 33 31 30 30 30 30 32 33 33 34 36 37 37 39 41 42 42 39 38 38 39 39 40 40 40 40 41 43 44 45 44 41 39 40 41 40 38 36 36 36 36 36 36 37 38 39 39 40 42 43 42 43 43
14 15 16 17 18 18 18 19 20 20 21 22 23 26 28 29 29 29 29 29 30 30 30 30 30 31 33 34 35 35 34 34 34 33 30 30 30 31 32 33 33 34 36 38 39 41 42 42 41 39 38 38 39 40 41 41 41 40 40 41 43 44 44 40 37 36 37 38 37 35 35 36 36 35 36 38 38 38 39 38 39 40 40 40 42
14 15 16 17 18 19 19 20 21 21 21 22 23 25 28 29 29 29 28 28 28 28 29 29 29 31 31 32 33 33 33 34 35 34 32 31 31 32 33 34 34 35 37 39 40 41 42 43 42 41 40 40 40 39 40 39 38 38 38 39 40 41 41 38 36 34 34 35 36 36 35 36 37 38 38 38 37 36 35 35 34 35 35 36 38
14 15 16 17 18 19 20 21 22 22 22 22 23 25 27 28 29 29 28 28 27 27 28 28 28 29 29 30 31 33 33 33 34 34 33 33 34 35 35 36 37 37 38 39 40 41 43 43 43 42 41 40 39 39 38 38 37 37 38 39 39 39 39 38 35 33 33 35 36 36 37 37 37 38 37 35 34 33 32 31 31 31 32 32 31
14 16 16 18 18 19 20 22 23 23 23 23 24 25 26 27 28 28 28 28 27 26 26 27 28 28 28 29 31 32 33 34 34 34 33 33 35 36 36 36 37 37 38 39 41 42 43 43 42 41 40 40 40 40 40 39 39 38 39 39 38 38 39 39 37 36 37 37 37 37 36 35 35 35 34 32 32 32 32 31 29 28 30 30 27
14 16 17 18 19 19 19 21 23 23 24 24 24 26 27 28 28 28 28 28 28 28 29 30 32 32 30 30 32 32 32 32 32 33 34 34 35 36 34 34 34 34 35 38 40 41 41 41 40 38 37 38 38 38 37 37 37 37 37 37 37 37 38 38 39 40 40 39 39 37 34 31 30 31 32 30 30 31 31 31 30 29 29 28 23
14 16 17 17 18 19 20 21 22 23 24 25 25 26 27 27 28 29 29 28 27 29 32 33 34 34 32 33 33 32 32 32 33 35 36 37 37 38 37 36 36 35 35 37 37 35 32 31 30 29 30 32 32 31 31 33 34 35 36 37 36 35 36 36 35 37 38 36 36 35 31 28 26 28 28 27 28 30 30 30 30 28 26 25 22
14 16 17 18 19 20 21 21 22 22 23 24 26 27 28 27 26 26 28 28 27 28 31 33 34 35 34 34 33 32 33 35 36 36 37 38 39 39 39 39 39 38 38 39 37 31 25 24 24 25 26 27 26 27 29 31 31 32 33 34 33 33 33 33 32 34 36 35 34 32 29 26 24 24 25 25 26 28 29 29 29 27 24 23 21
15 16 17 18 19 20 21 21 22 22 22 23 24 26 29 31 30 27 25 25 26 28 30 31 32 32 32 32 33 32 33 35 36 36 37 38 39 38 38 39 39 38 38 38 33 26 23 22 22 24 27 27 27 28 30 29 28 29 30 31 32 33 32 31 31 33 33 32 32 31 29 27 24 24 25 25 25 25 26 27 27 26 25 24 22
15 17 18 18 19 20 20 20 21 21 22 23 23 23 25 28 33 34 31 28 28 29 29 29 29 28 29 31 32 33 34 34 35 36 36 37 38 38 38 39 39 37 35 33 27 24 24 23 23 25 28 27 27 30 30 29 29 30 29 28 29 31 32 31 31 31 29 25 24 26 27 26 25 25 25 26 25 24 23 24 25 24 23 23 22
14 16 18 18 19 19 20 20 20 20 21 22 23 23 23 23 26 32 36 38 38 34 29 25 23 24 28 30 31 33 34 34 34 35 35 36 37 38 37 36 34 31 29 26 23 24 26 25 25 27 29 29 30 32 33 32 32 32 29 28 29 31 32 32 31 30 28 25 22 21 22 24 24 23 23 24 25 23 22 23 24 23 21 20 20
14 16 17 17 17 18 19 19 20 20 21 22 22 23 23 22 23 25 29 33 37 39 38 35 31 29 29 31 31 31 32 33 34 34 35 35 36 36 35 31 28 27 25 22 21 22 24 24 25 27 30 31 33 34 34 35 34 32 30 29 30 31 32 31 29 28 27 25 22 20 21 23 23 23 21 21 22 22 22 23 23 22 20 19 18
14 15 16 16 16 17 18 19 20 20 21 22 22 22 23 23 23 23 23 24 26 30 34 39 41 39 34 32 32 33 33 33 34 34 33 33 33 32 29 25 23 24 24 22 21 22 23 23 24 27 30 32 34 35 35 35 34 30 27 26 27 27 28 28 28 27 26 23 21 20 21 22 24 24 23 21 20 20 19 21 23 23 22 21 19
14 15 16 15 15 16 17 18 19 19 20 20 21 21 22 22 22 23 23 23 23 25 27 32 38 39 35 30 30 32 33 33 32 32 31 30 29 27 23 20 20 22 23 23 23 23 24 24 23 26 29 31 33 36 36 34 29 25 23 23 23 23 24 26 27 26 25 24 22 21 21 22 22 23 22 21 22 21 20 20 21 22 22 22 20
13 14 15 15 15 16 17 18 18 18 18 18 19 21 22 22 22 22 23 23 23 24 26 28 31 34 35 34 33 34 34 33 32 30 28 26 25 23 20 19 20 21 21 22 24 25 26 26 25 27 30 30 30 33 35 31 25 22 21 21 22 23 24 25 26 25 25 25 24 23 22 20 19 19 19 18 19 21 21 22 21 21 23 23 21
13 13 14 14 14 14 16 17 17 17 17 18 19 19 20 21 22 21 21 22 22 23 24 26 26 26 29 33 35 35 33 33 33 33 31 29 26 24 23 23 22 21 21 22 24 25 27 28 28 29 30 30 28 30 32 30 25 22 21 20 20 22 24 24 25 26 25 24 23 24 23 21 19 19 19 18 17 17 19 21 22 20 20 21 19
13 13 13 12 12 12 14 16 17 18 18 18 18 19 19 21 21 20 21 22 22 22 23 24 24 24 26 30 33 33 31 30 30 31 32 31 29 27 27 27 25 23 24 26 27 27 28 30 30 30 30 29 29 29 29 28 26 22 21 21 21 22 23 23 23 24 24 23 22 22 22 22 21 21 22 22 21 20 20 21 22 21 20 20 20
13 13 13 11 11 12 13 14 15 16 17 18 19 19 19 19 19 20 21 21 22 22 22 22 24 26 28 29 29 29 27 26 26 27 28 28 29 28 28 27 26 26 26 28 29 29 29 29 30 30 29 29 29 29 29 28 26 24 20 18 19 20 21 22 23 23 22 22 21 21 21 21 21 21 21 22 22 22 22 22 23 23 22 21 21
12 12 12 11 11 12 13 13 14 15 16 17 18 19 19 19 19 19 20 21 21 22 22 23 24 26 27 26 26 25 24 23 25 25 25 25 26 27 26 26 26 26 27 28 28 28 29 29 29 29 29 28 28 28 29 29 29 27 24 21 18 17 18 18 19 19 19 19 19 19 20 20 19 19 19 20 19 20 20 20 20 20 19 18 19
11 12 11 11 11 12 12 12 13 14 15 16 17 17 18 19 19 19 20 20 20 21 22 23 25 26 26 24 23 23 23 23 24 25 25 25 26 26 26 26 26 26 26 27 27 27 28 29 29 29 30 30 30 30 30 31 31 29 25 22 20 19 17 16 14 13 13 13 13 14 14 14 14 14 15 16 16 17 17 17 17 17 17 17 19
11 11 11 11 11 11 11 11 12 13 14 15 16 16 17 17 17 18 18 19 19 20 20 22 24 26 26 25 23 23 24 25 25 25 25 26 26 26 27 27 28 27 27 26 26 26 27 28 28 28 29 29 28 28 29 29 29 28 25 21 19 18 17 15 14 12 9 6 5 5 6 8 10 11 12 14 15 16 16 17 17 17 17 18 19
10 10 10 10 10 10 10 10 11 12 13 14 14 15 15 15 15 16 17 18 18 18 19 20 22 24 25 25 25 25 25 26 25 25 26 27 27 28 29 29 29 29 28 28 27 27 27 27 28 29 29 28 28 27 27 26 25 25 24 21 19 18 16 14 13 11 7 4 0 3 5 7 9 11 13 15 16 17 17 17 18 18 18 18 18
10 10 10 10 9 9 9 10 11 11 12 13 14 14 14 13 14 15 15 16 17 18 18 19 20 22 23 24 25 25 25 25 25 25 26 27 28 28 29 30 30 30 29 29 28 28 28 28 28 29 30 30 29 28 27 26 25 24 22 20 18 17 15 13 11 8 5 2 2 5 7 8 10 12 14 15 17 17 17 17 18 18 18 18 18
9 9 9 9 9 9 9 10 10 11 11 12 13 14 14 13 13 14 14 15 16 17 18 19 20 21 22 23 23 24 24 25 25 25 26 26 27 28 29 30 30 30 29 29 28 28 28 28 28 29 30 30 30 30 28 27 25 24 22 20 18 16 14 11 9 6 4 3 4 7 8 10 11 13 14 15 16 17 17 17 17 17 17 18 17
8 9 9 8 8 8 8 9 10 11 11 11 12 13 13 13 13 13 13 14 15 16 17 18 19 20 21 22 22 23 24 24 24 25 26 26 27 28 29 29 30 30 29 29 28 29 29 29 29 29 29 29 29 30 29 28 26 24 22 21 19 17 14 11 9 7 5 4 5 8 10 12 13 14 14 16 17 17 17 17 17 17 18 18 17
9 9 8 8 7 7 8 8 9 10 10 11 11 12 12 12 13 13 13 14 15 16 17 18 19 20 21 21 22 22 23 23 24 25 26 26 27 27 28 29 29 29 29 29 29 29 29 29 29 29 29 29 29 29 29 29 28 26 24 22 20 18 15 13 10 9 7 6 7 9 12 13 15 15 16 16 17 17 18 18 17 18 18 18 18
9 8 8 8 7 6 7 8 8 9 9 10 11 12 12 12 12 12 13 14 15 15 16 17 18 19 20 21 22 22 23 23 24 25 26 26 27 27 27 28 28 28 28 29 28 28 28 29 29 30 30 30 29 29 29 29 29 28 26 23 21 18 16 14 12 10 9 9 10 12 13 15 17 17 17 18 18 19 19 19 18 19 19 19 18
9 9 8 7 7 6 7 7 7 8 8 9 10 11 12 12 12 12 13 14 15 15 16 16 17 18 18 19 21 21 22 23 24 24 25 26 26 27 27 27 27 28 28 27 27 27 27 28 29 29 30 30 30 30 30 29 29 28 27 25 22 20 18 15 13 11 10 11 12 14 15 17 19 19 19 19 20 20 20 20 20 20 20 20 19
9 8 8 7 7 7 7 7 7 8 8 9 10 11 11 12 12 12 13 14 15 15 16 16 16 17 17 18 19 20 21 22 22 23 24 25 25 26 26 27 27 27 27 27 26 26 26 26 27 28 29 29 30 30 30 30 29 27 26 25 24 21 19 17 14 13 12 12 14 16 17 19 20 20 20 21 21 21 22 22 21 21 21 21 21
Wind_Direction
99 98 95 80 67 64 49 37 34 26 20 16 11 8 5 1 360 358 357 356 354 353 351 349 347 343 341 339 338 337 336 336 336 335 333 331 330 328 327 326 324 321 320 317 317 316 313 311 309 306 304 300 297 296 294 293 293 291 288 283 276 270 264 256 258 270 268 263 262 262 261 257 254 250 246 243 242 241 241 241 241 239 238 238 237
102 97 93 81 64 59 45 28 24 17 12 9 4 3 0 357 354 351 351 350 348 346 344 342 340 337 335 332 330 329 327 327 327 327 325 324 323 322 322 321 318 316 315 313 312 312 309 306 305 306 306 302 298 297 295 294 293 290 286 283 277 273 267 259 259 267 271 267 263 261 259 254 252 251 246 244 243 242 241 240 239 239 239 238 237
98 89 81 70 54 43 30 17 11 6 3 359 356 355 352 350 349 345 344 342 340 339 337 335 333 332 329 327 325 322 320 319 318 317 316 315 315 315 315 315 314 311 309 308 307 307 305 302 299 300 301 300 298 296 294 292 291 288 285 282 277 274 270 262 259 262 270 272 265 260 258 254 252 252 249 247 246 243 241 240 239 239 238 236 235
93 83 66 50 33 22 14 7 2 359 356 353 350 348 345 344 342 340 339 337 335 334 332 330 329 327 325 324 322 319 317 316 314 311 309 309 308 308 307 308 308 307 306 305 304 302 300 298 297 296 294 292 292 293 292 290 287 285 284 281 278 275 271 265 260 259 265 271 267 260 258 257 256 255 251 246 242 239 238 238 237 236 236 234 233
88 64 31 14 4 360 358 355 354 353 351 348 345 341 340 338 338 337 335 333 331 330 329 328 327 324 322 320 318 316 315 314 311 309 308 307 306 305 305 304 304 303 303 302 301 300 298 295 294 293 290 285 284 286 287 288 286 283 280 279 278 276 273 269 263 260 259 263 267 265 260 256 256 255 251 243 238 236 236 236 234 233 233 232 232
41 1 350 349 347 346 346 345 345 346 345 343 340 337 336 335 334 334 333 331 329 328 327 326 325 322 320 317 315 313 312 310 307 306 305 305 305 304 303 303 302 301 300 299 298 298 296 294 292 290 286 282 280 281 281 282 283 282 279 278 276 274 273 270 266 262 259 260 264 265 259 254 252 252 250 244 236 232 232 233 234 232 231 230 231
318 333 333 335 335 334 335 335 336 337 337 336 334 332 332 331 331 331 330 328 326 326 325 323 321 320 317 315 313 311 310 307 304 303 303 303 303 302 302 301 299 298 296 295 294 293 293 292 291 289 286 282 280 279 278 277 278 278 279 279 278 274 271 269 267 263 260 261 262 261 259 255 249 248 250 246 238 233 230 227 228 228 228 228 230
302 319 321 323 325 325 327 328 329 331 331 329 328 327 327 327 327 327 326 325 324 322 321 320 318 317 315 313 311 310 308 306 304 304 304 304 302 300 299 298 297 295 294 293 292 291 289 289 288 288 286 283 281 280 278 275 273 273 274 275 274 272 269 267 266 262 259 260 261 260 258 254 246 243 244 238 230 231 229 223 225 226 224 227 229
288 304 310 313 318 320 322 323 325 326 326 325 325 324 323 323 322 322 322 321 321 319 318 317 316 315 314 312 310 309 307 305 304 305 306 305 303 301 298 296 294 292 291 290 289 288 287 286 286 285 285 284 283 281 278 275 272 269 269 268 266 265 265 264 262 260 258 257 259 260 256 250 243 235 231 226 224 229 228 222 226 229 225 227 231
272 288 300 309 314 315 317 318 320 322 322 322 322 321 320 320 319 319 318 317 317 317 316 315 314 313 312 311 309 308 305 303 304 306 306 304 303 301 299 296 293 291 289 288 286 285 285 284 283 283 283 283 282 281 279 278 274 269 268 266 262 259 258 258 257 256 255 254 255 256 252 250 245 234 229 230 230 230 226 219 223 227 221 226 235
263 285 299 308 312 313 315 316 318 319 318 317 317 317 317 317 316 315 315 314 314 314 313 313 311 310 310 309 307 306 304 303 306 308 307 305 304 302 299 296 294 291 288 286 285 285 284 283 283 283 282 281 280 280 279 279 277 274 271 268 264 259 255 253 252 251 250 251 253 253 249 249 250 242 234 235 231 226 226 222 220 218 212 216 232
278 297 306 311 313 314 314 314 313 314 314 315 315 315 314 313 314 314 313 313 313 311 310 309 308 307 308 307 305 304 302 303 308 310 308 307 306 303 300 297 294 291 288 286 284 284 284 284 283 281 280 279 279 279 278 278 277 276 274 271 267 262 258 254 252 249 247 246 249 251 248 249 252 248 238 234 229 224 226 225 221 219 216 218 225
299 306 312 314 314 315 312 311 310 310 312 313 312 312 312 312 313 313 312 312 311 309 307 306 304 305 306 306 304 302 301 304 309 310 307 306 306 304 300 296 293 290 288 286 284 283 283 284 284 282 280 278 277 277 277 277 277 277 276 274 270 265 261 258 255 252 249 246 245 249 249 248 251 251 245 237 228 222 222 223 224 222 222 225 228
302 308 311 312 311 310 308 308 309 309 311 311 311 311 311 311 311 311 311 310 308 306 305 304 304 305 306 305 304 302 301 305 309 308 306 305 304 302 299 294 291 289 287 286 285 284 283 283 282 281 280 278 277 276 276 277 278 276 275 273 271 268 265 261 257 254 251 248 245 248 250 249 249 251 251 243 231 225 222 222 223 223 225 232 235
303 305 306 306 304 304 306 308 309 310 311 311 310 310 310 311 311 312 310 308 306 304 304 303 304 306 306 306 304 302 301 306 309 307 306 306 305 302 298 295 292 290 288 287 286 285 284 283 281 279 279 278 277 276 277 278 278 277 275 272 270 268 266 263 259 256 253 250 247 248 250 250 249 250 251 247 240 236 233 231 230 229 229 234 237
303 303 304 305 304 305 308 309 311 311 312 311 310 311 312 312 312 312 310 307 305 304 303 303 304 305 305 305 303 301 302 306 308 306 305 306 305 303 299 295 292 289 287 287 287 286 285 283 282 282 281 280 279 278 278 279 279 278 277 274 271 268 265 264 262 260 257 255 253 251 252 253 251 250 250 247 245 243 239 236 233 230 227 230 234
306 307 307 306 305 308 310 311 312 312 311 311 312 313 314 313 313 312 309 306 305 304 303 303 303 303 303 303 302 301 303 306 307 305 304 304 303 300 297 294 291 289 289 288 288 287 285 284 284 285 284 283 283 282 280 278 277 277 276 275 273 269 265 263 263 261 260 259 257 256 256 256 255 252 251 248 246 243 236 230 226 223 222 225 232
309 307 306 305 307 311 313 312 311 311 311 313 314 315 314 313 312 311 308 305 303 302 302 302 301 301 301 301 302 301 302 304 305 303 302 302 300 298 295 292 290 290 290 290 290 289 288 288 288 288 287 286 286 285 282 278 275 273 272 273 273 271 267 264 262 261 260 259 258 255 255 255 255 253 251 249 246 241 233 229 226 222 220 223 231
306 304 304 306 309 313 314 313 312 312 314 315 315 315 314 313 312 310 306 303 300 300 300 300 300 301 301 301 302 301 301 302 303 302 300 300 298 296 294 291 289 290 290 290 290 289 289 290 289 288 287 287 287 287 284 281 277 274 272 272 272 270 269 267 263 260 258 256 255 253 252 252 252 251 249 247 245 240 235 233 230 224 221 226 230
302 302 304 308 312 316 316 315 314 315 316 317 317 315 314 313 312 309 305 301 299 298 299 299 299 301 302 303 304 302 301 301 302 301 299 299 298 296 294 291 289 289 289 288 288 287 288 288 288 288 288 288 288 287 285 282 279 275 271 268 267 268 270 271 268 263 258 255 253 252 251 251 250 249 247 245 243 240 236 235 232 227 225 228 228
299 301 306 312 317 319 317 316 316 318 319 319 317 314 314 313 310 306 304 301 299 298 299 300 300 301 303 305 303 301 300 300 300 300 298 298 297 296 293 290 288 288 287 285 285 286 288 289 290 290 291 290 289 288 286 283 280 277 271 265 263 265 267 268 268 267 261 255 252 250 249 249 248 247 244 242 241 239 236 234 233 230 228 228 227
300 304 311 317 319 319 318 318 319 320 321 320 317 314 314 312 307 304 302 301 299 298 299 301 301 302 304 304 302 300 300 299 299 298 296 296 297 295 292 289 288 288 287 286 286 287 287 287 287 287 287 287 286 285 283 282 280 279 276 273 271 270 267 264 264 266 264 257 249 245 245 244 243 242 240 239 238 238 235 234 233 231 230 230 228
304 309 315 319 319 319 319 320 321 322 322 322 317 314 312 309 305 303 302 301 300 299 301 303 303 303 304 303 300 300 301 301 299 297 294 295 296 295 292 290 290 289 287 286 286 287 287 286 286 284 283 282 282 282 281 280 278 277 276 275 274 273 272 268 262 260 261 259 250 241 239 239 238 237 236 235 235 236 234 234 234 233 232 232 231
308 313 318 319 319 320 321 322 323 323 324 323 317 312 310 307 304 303 301 300 299 299 301 304 304 303 302 300 300 301 302 302 301 298 294 293 294 295 292 290 289 288 286 285 285 285 286 285 283 281 280 281 282 283 283 283 282 281 280 278 275 273 273 272 265 257 256 257 251 241 234 234 233 233 233 233 234 235 235 235 236 235 234 235 234
310 315 319 320 320 321 321 323 325 325 325 323 316 310 308 306 303 302 301 300 299 299 301 303 303 300 297 295 296 300 303 303 302 300 297 293 293 291 287 284 284 283 282 282 281 282 282 283 284 286 287 288 289 288 287 285 283 282 281 280 278 273 272 274 272 262 253 253 253 245 235 230 231 232 233 233 233 233 233 233 234 235 235 236 236
312 316 319 319 321 322 321 323 326 326 324 321 314 309 307 304 301 301 301 300 299 300 300 302 300 296 293 292 294 298 301 301 301 301 301 297 293 288 282 279 278 277 277 276 276 277 278 280 285 288 289 288 287 284 282 280 278 278 279 279 278 275 273 274 274 266 255 251 253 249 238 230 229 231 232 231 229 228 228 227 228 230 231 232 233
312 315 318 319 320 322 323 324 326 325 321 319 314 310 308 304 300 299 299 300 301 300 299 298 296 291 289 292 295 297 300 301 301 302 301 296 292 288 284 281 279 276 275 274 274 275 276 277 279 281 282 283 282 279 278 277 276 276 277 277 276 274 273 273 272 270 262 253 251 251 243 232 227 227 227 225 224 225 225 223 222 224 224 225 226
312 314 317 318 320 322 323 323 324 321 318 316 313 309 308 306 301 299 300 301 299 297 295 292 288 287 290 294 297 297 298 299 300 301 299 296 294 294 291 290 287 281 277 276 276 275 275 275 273 272 273 275 275 274 274 273 272 273 274 275 275 274 275 275 274 273 267 255 249 250 246 233 223 221 220 220 221 223 223 220 220 221 219 216 217
311 314 316 318 319 322 323 323 322 319 315 314 311 309 309 306 301 299 301 301 297 294 295 293 291 292 294 297 298 298 298 300 302 303 302 301 300 301 300 298 296 293 289 288 287 284 280 276 272 270 268 268 269 271 272 272 272 272 273 275 274 273 273 274 274 275 269 255 245 245 242 232 223 219 217 216 219 221 221 219 218 218 213 208 212
310 313 316 318 320 322 323 322 321 317 314 312 311 311 312 310 303 297 297 300 299 296 295 294 296 298 300 300 300 299 299 302 304 305 305 304 304 305 305 303 302 302 301 301 302 300 295 289 284 282 279 276 276 276 276 275 274 272 272 273 272 271 272 272 274 278 272 254 240 238 238 233 226 220 215 215 218 219 219 218 217 213 206 203 209
306 310 315 318 321 323 321 320 319 315 312 311 310 310 313 317 318 313 305 301 303 303 300 298 299 301 302 303 305 304 303 305 307 307 307 308 308 309 308 307 306 306 305 306 306 304 298 293 291 290 289 286 283 281 278 276 273 271 270 271 270 270 272 272 275 281 274 253 235 232 235 234 230 224 217 215 217 217 215 215 213 209 205 205 209
303 309 314 318 321 322 320 318 316 313 312 312 312 311 311 315 321 325 325 319 311 305 302 302 305 308 309 309 310 310 309 309 310 311 312 312 312 312 311 311 311 310 309 309 309 306 302 299 296 295 293 288 283 281 279 276 274 272 269 268 269 270 271 272 276 281 278 260 239 232 232 231 230 227 219 214 214 212 207 205 204 205 206 208 212
305 309 314 318 320 321 319 317 314 311 311 312 312 313 312 310 312 318 324 327 325 321 317 313 311 313 315 315 314 314 314 314 315 316 317 317 316 317 318 318 316 315 315 315 310 304 301 299 295 293 292 288 286 286 284 281 278 273 267 263 264 267 270 273 277 281 278 265 250 241 237 233 231 229 223 216 211 206 200 198 199 201 203 206 211
308 311 315 317 317 318 318 314 311 310 311 311 310 310 311 310 308 310 315 321 325 328 331 331 330 327 324 321 320 319 319 320 320 319 320 322 322 324 326 324 322 322 322 319 311 303 299 297 295 295 296 294 293 292 289 284 279 272 265 260 260 264 269 273 278 282 278 264 251 246 245 241 238 235 229 218 210 203 198 196 195 196 200 203 206
311 314 317 317 316 316 315 313 311 310 311 312 312 310 310 310 310 309 310 312 313 316 320 325 328 329 328 326 326 326 325 324 323 323 325 327 329 330 331 331 330 329 327 323 315 308 305 303 302 303 304 302 299 297 294 289 282 273 264 259 258 261 267 271 275 279 275 264 254 251 249 246 242 236 226 214 205 201 198 196 195 197 199 201 202
313 314 316 318 318 317 315 313 312 312 312 311 311 311 310 310 309 310 310 310 308 307 310 315 321 325 328 329 329 329 328 327 327 327 329 331 333 335 335 333 330 327 323 319 316 312 309 307 306 307 308 306 305 306 304 296 287 276 266 260 258 261 266 269 271 274 271 263 255 253 251 248 241 229 216 205 200 200 199 197 198 199 200 201 200
311 312 316 320 321 318 315 314 313 312 312 311 311 312 312 311 311 312 312 311 310 311 313 316 321 325 330 333 336 335 332 330 331 333 335 338 340 339 335 329 325 322 317 317 317 314 311 310 309 308 307 306 308 314 316 309 294 279 269 263 260 259 262 265 266 268 267 260 251 247 247 246 238 223 209 202 201 201 199 197 199 202 203 202 197
308 312 317 319 317 314 312 313 314 315 315 314 314 315 314 313 313 314 314 314 314 314 316 319 322 323 326 330 335 336 334 334 336 339 341 342 343 340 335 330 325 321 317 317 318 316 313 312 312 310 307 306 309 316 322 320 307 287 272 267 263 262 263 264 264 266 265 257 249 245 243 240 235 223 212 207 207 206 203 199 198 199 198 195 189
306 313 317 318 315 311 310 313 316 319 321 320 319 318 315 314 315 316 317 316 316 317 319 320 321 324 326 328 333 337 339 339 339 339 338 339 340 338 335 332 329 326 323 322 321 319 316 316 317 315 312 313 315 318 322 326 321 306 286 272 265 263 263 264 264 265 263 257 252 249 242 236 231 224 217 212 211 210 206 202 198 194 189 188 188
305 311 316 322 321 315 315 318 320 323 324 322 320 319 317 314 315 317 319 318 317 318 321 321 321 325 330 331 335 340 342 338 336 335 334 335 336 336 335 333 330 327 325 324 323 322 319 319 321 322 320 320 321 322 323 327 331 329 317 297 280 272 268 267 267 267 264 258 254 249 242 237 231 224 217 215 214 210 204 198 195 193 190 188 186
303 306 314 324 325 321 322 324 324 326 325 321 320 320 317 315 317 320 320 319 318 319 322 321 322 328 332 334 338 344 344 338 336 336 336 335 336 335 335 334 332 329 327 326 325 324 322 322 324 325 327 329 330 330 332 333 336 339 339 334 324 312 301 293 286 278 269 261 253 246 241 235 226 217 211 208 205 201 196 191 189 188 185 182 176
299 305 314 323 325 325 327 329 328 328 327 324 323 322 318 316 320 323 321 319 320 321 322 323 326 332 337 338 341 345 347 345 343 342 341 340 340 340 339 339 338 337 335 333 332 329 327 326 326 328 334 340 342 342 344 345 343 341 342 345 347 343 337 330 321 306 287 270 254 242 234 223 212 204 198 192 186 182 179 176 175 173 170 167 164
295 303 312 318 322 326 329 331 332 332 329 326 324 322 319 318 322 324 322 321 323 325 324 325 329 335 341 344 346 349 351 352 350 347 346 345 345 345 345 344 344 344 342 341 341 340 337 334 333 336 341 348 350 350 351 351 348 345 347 351 355 355 353 350 346 337 322 301 261 226 206 193 185 178 172 170 167 164 161 160 160 159 157 156 155
293 300 306 312 319 325 330 335 336 333 330 328 324 322 321 323 326 328 326 326 328 329 328 328 331 335 340 346 350 352 352 352 351 350 350 349 348 348 348 349 349 349 349 349 350 351 348 346 346 348 352 357 360 1 2 1 358 356 357 360 2 3 2 360 357 351 343 339 2 152 154 156 158 156 154 155 154 151 149 149 150 149 148 149 148
291 297 303 309 316 322 329 337 338 334 332 332 330 328 328 329 330 331 331 331 333 334 333 334 336 337 339 344 348 349 350 350 351 351 352 352 351 351 351 352 353 354 354 355 357 358 357 355 355 357 0 4 6 8 9 11 11 11 9 8 7 7 6 4 1 358 358 20 117 131 136 139 142 143 143 145 146 145 144 145 146 145 145 147 147
288 294 300 306 313 321 329 335 336 335 336 336 331 328 331 334 334 334 335 338 338 336 335 338 340 340 341 344 347 347 348 350 351 352 353 354 355 355 355 356 358 360 0 1 3 4 4 2 1 1 4 7 10 12 14 15 16 17 17 15 12 9 9 8 8 12 31 80 118 128 129 128 129 133 135 138 139 138 137 139 141 142 143 143 144
286 290 294 300 308 317 326 333 334 334 336 336 331 328 330 334 335 337 340 343 341 338 338 340 342 343 345 347 348 348 349 350 351 352 355 357 359 0 1 1 3 4 6 7 9 10 10 9 8 6 6 7 10 14 16 17 19 20 21 20 17 13 13 16 22 34 53 83 112 123 123 119 118 121 125 128 128 128 129 130 133 135 137 138 139
281 284 287 294 302 312 322 328 330 332 333 332 328 328 331 333 335 339 343 344 342 340 341 342 344 345 347 349 350 351 351 352 353 356 359 1 3 5 5 6 7 8 9 12 14 16 16 16 14 13 12 11 10 11 14 17 19 21 22 22 20 18 18 23 33 46 63 82 102 113 117 116 115 116 119 120 120 121 121 122 124 127 129 131 132
278 279 281 287 297 307 314 319 323 326 328 326 323 326 331 333 335 340 344 342 341 341 342 343 345 347 348 350 352 353 354 355 357 359 1 3 5 7 9 10 11 11 12 14 17 19 20 20 19 18 18 17 17 16 15 17 19 20 21 21 21 21 25 32 39 51 67 84 97 106 110 111 110 110 112 114 116 116 116 116 118 121 121 121 123
272 274 278 283 291 299 304 310 315 317 318 317 318 321 326 330 334 342 344 341 339 341 342 343 345 347 348 350 351 353 355 357 357 359 1 3 5 8 10 12 13 14 15 16 18 20 22 23 22 21 20 21 22 21 21 21 21 21 21 22 23 26 30 37 44 54 69 85 97 103 106 107 106 105 106 109 111 111 111 111 112 114 114 114 115
268 272 276 279 286 293 295 301 309 311 310 311 313 316 321 326 333 340 341 337 336 337 338 339 342 345 347 349 350 351 353 355 357 359 1 3 5 7 9 11 12 13 14 16 18 19 22 24 24 23 22 22 23 23 24 24 25 24 24 24 27 29 33 38 47 59 71 85 96 102 105 106 105 104 104 107 108 108 108 109 110 111 111 111 112
Height
844 844 845 845 845 845 846 846 846 846 845 845 844 843 842 840 839 838 837 836 834 832 831 830 828 827 826 824 823 821 819 818 816 815 814 813 813 811 810 809 807 806 804 803 802 802 800 798 796 796 795 793 791 791 790 789 788 787 788 787 786 786 786 785 780 771 770 773 773 773 774 774 772 770 770 771 771 772 772 771 772 773 774 775 777
845 845 845 845 845 846 846 846 846 845 845 844 843 842 841 840 839 838 837 835 834 833 831 830 829 827 826 824 822 820 819 817 815 813 812 810 809 808 807 806 805 803 802 800 799 799 797 796 794 793 792 790 788 788 786 785 785 783 783 783 781 781 783 782 779 772 767 768 770 770 770 770 768 767 767 767 767 768 768 767 767 767 768 770 771
845 845 845 845 845 845 845 845 845 844 844 843 842 841 840 839 838 837 835 834 833 831 830 829 827 826 824 823 821 819 818 816 814 813 811 809 807 805 804 802 801 800 798 797 796 795 794 792 791 790 790 787 785 784 783 782 781 779 778 778 777 776 778 778 776 771 766 764 766 766 766 766 764 763 764 764 764 765 763 762 763 763 763 764 765
845 844 844 845 844 844 844 844 843 843 842 841 840 839 838 837 836 835 833 832 830 829 828 826 825 823 821 820 818 817 815 814 812 811 809 808 806 804 802 800 798 796 794 793 792 791 790 788 787 787 786 784 781 780 779 778 777 776 774 774 773 772 772 773 771 768 765 762 761 762 763 762 760 760 761 761 761 761 760 759 759 759 758 759 761
844 844 844 844 843 843 842 842 841 840 840 839 838 837 836 835 833 832 831 829 828 826 824 823 821 820 818 817 815 813 812 811 809 807 806 805 804 802 800 798 796 794 791 790 788 787 786 784 783 783 783 781 778 776 775 774 773 772 770 769 769 768 768 768 766 765 763 759 756 758 759 759 758 757 757 757 758 758 758 757 756 756 755 756 757
843 842 842 842 842 841 841 840 839 838 838 837 836 835 833 832 831 829 828 826 824 823 821 820 818 817 815 813 812 810 808 807 805 804 803 802 801 799 798 796 794 792 790 788 786 785 783 781 779 779 778 776 774 771 771 770 768 767 766 764 764 764 763 762 762 761 759 755 753 754 755 755 754 754 753 753 754 754 754 754 753 753 753 753 753
841 841 841 841 841 840 839 839 838 837 836 835 834 832 831 830 828 827 825 823 821 820 818 816 815 813 812 810 808 807 805 803 802 801 800 799 798 797 795 793 791 789 787 785 784 782 780 778 776 774 773 771 769 767 766 765 764 762 761 760 759 760 758 757 757 757 755 752 750 749 749 750 751 750 749 750 750 749 749 749 749 749 749 749 749
840 840 840 839 839 839 838 837 836 835 834 833 831 830 828 827 825 824 822 821 819 817 815 813 811 810 808 807 805 804 802 800 798 798 798 797 796 794 792 790 787 785 783 781 779 778 775 774 771 769 767 766 764 763 761 760 759 758 757 756 756 755 754 752 752 752 751 749 746 745 745 745 745 746 747 747 746 743 743 746 746 746 745 745 744
838 839 838 838 837 836 835 835 834 833 832 830 829 827 825 824 822 821 819 817 816 814 812 811 808 806 805 803 802 801 799 797 796 796 796 794 792 791 788 787 784 782 779 776 775 773 770 768 766 764 762 760 759 758 756 756 756 754 752 752 752 751 749 748 747 747 746 744 742 741 741 740 739 740 741 740 738 737 740 743 743 742 743 744 742
837 837 836 836 835 834 834 833 832 831 829 827 826 824 823 822 819 818 816 814 812 810 808 807 805 804 802 799 798 797 795 793 793 793 793 792 789 787 784 782 780 778 775 772 769 767 765 764 761 759 757 755 754 752 751 750 750 749 748 747 747 747 745 744 742 741 741 740 737 737 737 735 733 734 734 733 734 736 738 738 738 739 743 743 739
835 835 834 834 833 832 832 831 830 829 827 826 824 822 821 819 818 816 814 811 810 807 805 803 801 801 799 797 795 793 791 790 790 790 790 788 787 784 780 777 775 772 770 767 763 761 759 757 756 754 752 750 748 747 745 744 743 742 742 741 741 741 740 739 737 736 736 734 732 732 732 729 727 728 728 728 730 732 733 734 735 736 738 736 733
834 833 833 832 831 831 830 829 828 827 825 824 822 821 819 817 816 814 811 809 807 804 803 801 798 797 797 795 792 789 787 786 787 787 785 783 783 780 777 773 769 766 764 761 758 755 753 751 750 748 747 745 744 742 740 738 737 736 735 735 734 734 734 733 731 730 730 729 727 726 725 723 721 722 724 724 725 727 728 730 730 730 730 729 726
832 831 831 830 829 829 828 827 826 824 823 822 820 819 817 815 813 811 808 806 804 802 800 798 796 795 794 792 789 786 784 784 784 784 781 779 778 776 773 768 764 761 758 756 753 751 748 746 744 742 741 740 739 737 735 733 732 731 729 728 727 726 726 726 725 724 723 723 721 719 718 718 716 716 718 719 720 721 722 723 724 725 725 722 719
830 830 829 829 828 827 826 825 824 823 821 820 818 816 815 812 811 809 806 803 801 798 796 794 792 792 791 789 786 782 780 781 781 779 777 775 774 771 768 763 759 755 752 750 748 746 744 742 739 736 734 734 734 733 732 730 728 726 724 722 720 719 718 718 718 718 717 717 715 712 710 712 711 711 713 716 715 715 715 716 717 719 719 717 716
828 828 827 827 826 825 824 823 822 820 819 817 815 814 812 810 808 806 803 801 798 796 793 791 789 788 788 787 783 778 777 779 778 775 773 771 769 766 763 759 755 750 747 744 743 740 738 736 734 731 728 728 728 728 728 727 724 721 719 716 714 712 711 710 710 710 710 710 709 706 704 705 706 706 709 711 710 709 709 710 712 713 714 714 715
826 826 825 825 824 823 822 821 819 818 816 814 812 810 809 806 805 803 800 797 795 793 791 789 787 786 784 783 780 774 772 775 775 771 769 768 765 762 759 755 751 746 742 740 738 736 734 732 729 727 724 722 722 723 724 723 720 717 713 710 708 706 703 702 702 702 702 702 702 700 698 698 699 701 703 705 705 706 707 708 709 710 711 711 709
824 823 823 822 821 821 820 818 816 815 813 811 809 807 805 803 802 800 797 793 791 790 788 786 785 784 780 779 777 772 768 770 771 768 765 764 761 758 755 750 746 742 738 736 734 732 730 728 726 724 720 718 717 718 719 718 715 712 708 705 703 700 696 695 695 695 695 695 695 694 693 692 693 694 696 698 700 702 703 703 703 705 706 705 702
821 820 820 819 818 818 817 815 814 812 810 808 806 804 802 800 798 797 795 791 788 786 785 782 781 781 778 775 774 770 765 765 767 764 761 760 757 754 751 746 742 739 735 732 731 729 726 725 724 721 717 714 713 713 713 712 710 707 703 700 698 693 690 689 689 688 688 688 688 688 687 686 686 688 690 691 694 697 697 695 696 699 700 698 694
818 817 817 816 816 815 814 812 811 809 807 805 803 801 799 797 795 793 792 789 785 783 782 779 776 776 775 771 770 768 763 761 762 760 757 755 753 750 747 743 738 735 732 729 726 725 723 721 720 719 715 712 710 708 708 707 704 701 698 696 692 686 684 685 683 682 683 682 681 681 680 679 680 681 683 684 686 689 689 689 691 693 692 690 689
815 814 814 813 813 812 811 809 807 806 804 801 800 798 796 794 792 790 788 786 783 780 779 777 773 771 770 768 765 764 761 757 757 756 753 751 749 746 743 739 735 731 728 725 722 720 719 717 715 714 712 708 705 704 702 701 699 696 694 691 686 681 681 682 680 678 677 675 675 674 673 673 674 674 676 677 679 681 682 683 684 685 684 683 685
812 811 811 810 810 808 807 806 804 803 801 799 797 795 793 791 789 787 785 782 780 777 775 774 770 767 766 764 761 760 758 754 752 751 749 747 745 742 739 735 731 727 723 720 718 715 713 712 710 709 708 705 702 699 697 695 694 691 687 684 680 678 678 678 676 674 672 669 667 667 667 667 667 667 668 670 671 672 674 675 676 677 677 677 678
809 808 808 807 806 805 804 803 801 800 798 796 794 791 790 789 787 784 782 779 776 774 772 770 767 763 761 760 758 755 754 751 749 746 744 742 740 738 735 731 728 724 718 715 713 710 708 706 705 704 702 699 696 694 691 689 688 685 681 678 675 673 673 671 670 669 666 663 660 659 659 659 659 660 661 662 663 664 666 667 668 669 669 670 672
806 806 805 804 803 802 801 799 798 797 795 794 791 788 787 786 784 781 779 776 773 770 768 766 763 760 757 756 754 752 749 747 745 742 739 737 735 733 730 726 724 721 715 710 708 705 702 699 697 696 695 692 690 687 684 682 681 678 675 673 671 668 666 664 663 661 659 656 653 650 650 651 651 652 653 654 655 657 658 660 661 662 663 664 666
804 803 803 802 800 799 798 796 795 794 792 791 789 786 784 782 780 778 776 774 770 767 765 763 761 757 754 751 749 747 744 742 739 737 735 733 730 727 725 721 719 716 711 707 703 699 695 692 690 688 686 684 682 680 677 675 673 671 669 667 665 663 661 658 655 653 652 649 645 641 640 642 643 644 645 646 648 650 652 653 655 656 658 659 660
801 801 800 799 798 796 795 794 792 791 789 788 786 784 782 779 777 775 773 771 768 765 762 760 757 754 751 748 744 741 739 736 733 731 729 727 725 722 719 716 713 710 706 702 699 695 690 686 683 681 680 677 675 673 670 668 667 665 663 661 659 657 655 652 649 647 644 640 637 634 632 632 634 636 638 641 643 644 646 647 649 651 653 655 656
799 798 797 796 795 794 792 791 789 787 786 785 783 782 779 777 774 772 770 768 765 762 759 756 754 751 748 744 740 736 734 731 728 726 723 721 718 715 712 709 706 703 700 696 693 689 685 682 679 677 674 672 670 667 664 662 660 658 657 655 653 651 648 646 644 641 636 632 630 628 626 625 627 630 633 635 637 638 640 642 643 645 647 649 651
796 796 795 794 793 791 790 788 786 784 783 782 780 779 776 774 772 769 766 764 761 759 756 753 751 747 743 739 735 732 729 726 723 721 718 715 711 707 704 701 698 695 692 689 685 682 678 676 674 671 669 666 663 661 658 656 653 651 649 648 646 644 642 640 637 634 630 626 623 621 620 620 621 623 626 628 630 631 634 636 637 639 641 644 646
794 793 793 791 790 789 787 785 783 781 780 779 778 775 773 771 768 766 764 761 758 755 752 749 746 743 739 735 730 727 724 721 718 716 713 709 705 701 698 695 691 687 684 680 676 673 670 668 666 665 663 660 657 654 652 649 647 644 642 641 639 637 635 633 630 626 622 618 616 615 615 615 614 616 619 621 623 626 628 630 632 633 635 638 640
792 791 790 789 788 786 785 783 781 779 778 776 775 773 770 768 765 762 760 759 756 753 749 745 742 739 736 732 728 723 719 717 714 711 708 704 700 696 693 690 686 682 678 674 670 667 665 662 660 659 657 654 651 648 645 642 640 638 636 634 632 630 627 625 622 618 614 611 609 609 609 609 609 610 613 615 617 620 623 625 627 628 630 633 635
789 789 787 786 785 783 782 780 779 778 776 774 771 769 766 765 763 760 757 755 754 752 748 744 740 736 733 729 726 722 717 713 710 707 703 699 696 692 688 684 681 677 673 670 667 664 661 659 656 654 652 649 646 643 639 636 633 631 628 627 625 623 621 618 615 612 607 603 602 602 604 604 604 605 608 610 612 615 618 620 622 624 626 628 629
786 786 784 783 782 780 779 777 776 775 774 772 770 767 763 759 756 755 754 752 749 747 744 740 737 735 731 726 723 720 715 710 706 703 699 695 691 687 683 679 676 673 669 666 663 660 658 655 652 650 647 644 641 637 633 630 627 624 622 620 618 616 614 612 609 606 601 597 595 596 597 598 599 600 602 604 607 610 612 615 618 620 621 623 625
784 783 782 781 779 778 777 775 774 773 771 770 768 766 762 757 751 747 746 746 744 743 740 737 733 730 727 724 719 715 711 707 703 699 695 691 687 683 680 675 671 668 666 663 660 657 654 652 649 646 643 640 635 631 627 624 621 618 615 613 611 609 607 605 604 601 597 593 591 591 592 593 594 596 597 599 601 604 607 610 612 615 617 619 621
781 780 779 778 776 775 774 773 772 771 769 767 765 763 761 758 753 747 741 738 735 733 733 733 731 729 725 720 716 712 707 703 699 695 691 688 683 679 675 672 668 665 663 661 658 655 652 650 646 642 639 635 630 625 621 617 614 611 609 607 605 602 601 600 599 597 594 591 589 588 589 589 591 592 593 594 596 599 601 604 607 610 613 616 618
779 777 776 775 774 773 772 771 770 768 767 765 763 761 759 757 755 751 745 739 733 727 722 721 722 723 721 716 712 709 705 700 696 693 689 685 680 676 672 668 665 662 660 659 657 653 650 647 643 639 635 630 624 620 615 611 607 604 601 600 599 597 596 595 594 593 590 588 587 586 587 587 588 589 590 591 592 594 597 599 602 606 608 611 614
776 775 774 773 772 770 769 769 767 766 764 763 761 759 757 755 753 751 748 744 740 735 728 721 716 716 716 713 708 705 702 698 694 690 687 683 679 675 671 667 664 661 659 657 655 652 649 645 641 636 631 626 620 615 609 604 600 597 596 594 594 593 593 592 591 590 588 586 584 584 584 584 585 585 586 587 589 591 593 595 597 600 603 606 609
773 772 771 770 769 768 767 766 765 764 762 761 759 757 755 753 751 749 746 744 741 738 733 727 720 715 713 712 708 703 699 696 692 689 686 683 679 676 673 669 666 663 660 657 655 652 648 644 640 635 630 624 618 611 605 599 595 593 592 591 590 590 590 589 588 586 585 583 582 582 581 581 581 581 582 584 585 587 590 592 595 597 600 603 606
771 770 768 767 766 765 764 763 763 761 760 758 757 755 753 751 749 747 744 742 740 736 732 728 723 716 711 708 706 702 697 694 691 688 685 683 680 677 675 672 669 665 661 658 655 651 647 643 639 634 628 622 616 610 603 596 592 590 589 588 588 587 586 586 585 584 582 581 579 579 579 579 579 579 579 581 582 584 586 589 592 595 598 600 603
768 767 766 765 764 763 762 761 760 759 757 756 755 753 751 749 747 745 742 740 738 735 731 727 724 719 714 708 704 701 696 692 688 684 682 680 678 676 674 672 669 666 662 658 655 652 647 642 637 632 627 621 616 610 603 597 592 589 587 586 585 584 583 582 581 580 579 577 576 575 576 576 576 577 578 579 581 582 584 586 589 592 595 598 601
766 765 764 763 762 761 760 758 757 755 754 753 752 751 749 747 745 743 740 738 735 733 730 726 723 720 716 711 705 701 697 693 689 685 682 679 677 675 673 670 667 664 660 657 654 651 646 641 636 631 625 620 615 610 604 598 593 589 586 584 583 581 580 579 578 576 575 574 573 573 573 573 574 574 575 576 578 580 582 584 586 589 592 595 597
763 762 761 760 759 758 757 755 754 753 752 751 750 749 747 746 744 741 739 736 734 731 728 725 722 719 715 711 707 704 700 696 693 689 685 681 678 675 672 669 666 663 659 656 652 649 645 640 635 630 625 620 614 609 604 599 594 589 586 583 581 579 577 576 574 573 572 571 570 570 570 570 571 572 573 574 575 577 579 581 584 586 589 591 594
761 760 758 757 757 755 754 753 752 751 750 749 747 746 745 744 742 740 737 735 732 730 727 724 721 718 715 712 709 706 703 698 694 691 687 683 680 676 673 670 666 663 659 655 651 648 644 639 635 630 625 619 614 609 604 600 595 590 586 583 580 578 576 574 572 571 569 569 568 568 568 568 568 569 570 571 573 575 577 580 583 585 588 591 594
759 757 756 755 754 753 751 751 749 748 748 746 745 744 743 742 740 738 736 734 732 729 726 723 720 717 714 712 709 706 702 698 695 691 687 684 680 677 673 670 666 663 659 655 651 648 643 639 635 630 625 619 615 610 605 601 597 592 588 584 581 579 576 574 572 571 569 568 567 567 567 567 568 569 570 571 573 575 577 580 583 586 589 591 594
756 755 754 753 752 750 749 748 747 746 745 744 743 742 741 740 738 736 734 732 730 728 725 722 719 716 713 711 708 705 701 698 694 691 687 684 680 677 673 670 666 662 659 655 651 648 644 639 635 630 625 621 616 612 607 603 599 595 591 586 583 580 578 575 574 572 571 570 569 568 568 568 569 569 571 572 574 576 578 581 584 586 589 592 595
753 752 752 750 749 748 747 746 745 744 743 742 742 741 740 738 736 734 733 731 729 727 725 722 719 716 712 709 706 703 700 697 694 691 687 684 680 676 673 669 665 662 658 654 651 647 644 640 635 631 626 621 617 613 609 606 602 598 594 589 585 582 580 578 576 575 573 572 572 571 570 570 571 571 572 574 575 577 580 582 585 587 590 593 596
751 750 749 748 747 746 745 744 743 742 741 740 739 738 738 736 734 733 731 729 727 725 723 720 718 715 712 709 706 703 700 697 694 691 688 684 680 677 673 669 665 662 658 654 651 647 644 640 636 631 627 622 618 614 611 607 604 600 597 593 590 586 583 581 579 577 576 575 574 574 573 573 574 574 575 576 578 579 581 584 586 588 591 594 596
749 748 747 746 745 744 742 742 741 740 739 738 737 737 736 734 732 731 729 727 725 724 721 719 717 715 712 709 706 703 700 697 694 691 688 684 681 677 674 670 666 662 659 655 651 648 644 641 637 633 629 625 620 617 613 609 606 603 599 596 593 590 587 584 582 580 578 577 577 576 576 576 577 577 578 579 580 582 584 586 588 590 593 595 598
746 745 745 744 743 741 740 740 739 738 737 736 736 735 734 732 730 729 727 725 724 722 720 718 716 713 711 708 706 703 700 697 694 691 688 684 681 678 674 670 667 663 659 656 653 649 645 642 638 635 631 627 623 619 616 612 608 605 602 599 596 593 590 587 585 583 581 580 580 579 579 579 580 581 582 583 584 585 587 589 591 593 595 597 600
744 743 743 742 741 740 739 738 737 736 735 734 734 733 732 730 729 727 725 724 722 721 719 717 715 712 710 707 705 702 700 697 694 691 688 684 681 678 675 671 668 664 660 657 654 650 647 644 640 637 633 629 626 622 619 615 611 608 605 602 599 596 593 590 588 586 585 584 583 583 583 583 584 584 585 586 587 589 590 592 594 596 598 600 602
742 741 741 740 739 738 737 736 735 734 733 733 732 731 730 728 727 725 723 722 721 719 718 716 713 711 709 706 704 702 699 696 693 691 688 684 681 678 675 672 669 665 662 658 655 652 648 645 642 639 636 632 628 625 622 618 615 611 608 605 602 599 596 594 592 590 589 588 587 587 587 587 587 588 589 590 591 592 594 595 597 599 601 603 605
740 739 738 737 737 736 735 734 734 733 732 732 731 729 728 726 725 723 721 720 719 718 716 714 712 710 708 706 703 701 698 696 693 690 687 685 682 679 676 673 669 666 663 660 657 654 650 647 644 641 638 635 631 628 625 621 618 615 612 609 606 603 600 598 596 594 593 592 591 591 591 591 591 592 593 594 595 596 597 599 601 602 604 606 608
737 737 736 735 734 734 733 733 732 731 730 730 729 727 726 725 723 721 720 719 718 716 715 713 711 710 707 705 703 701 698 696 693 690 688 685 682 679 676 673 670 667 664 661 658 655 652 649 646 643 640 637 634 631 628 625 622 620 617 613 610 607 604 602 600 599 597 596 596 595 595 595 596 597 597 598 599 600 601 603 604 606 608 610 612